This is the latest recevied weather packets stored in our database for station/object F4FEB-14. If no packets are shown the sender has not sent any weather packets the latest 10 day(s).
| Time | Temp. | Humidity | Pressure | Rain* | Wind** | Luminosity | Snow |
|---|---|---|---|---|---|---|---|
| 1777137299 | 21.67° C | 32% | 1018.4 hPa | 0 mm | - | - | - |
| 1777136999 | 21.67° C | 33% | 1018.5 hPa | 0 mm | - | - | - |
| 1777136697 | 21.67° C | 31% | 1018.5 hPa | 0 mm | - | - | - |
| 1777136395 | 21.67° C | 33% | 1018.5 hPa | 0 mm | - | - | - |
| 1777136094 | 21.67° C | 31% | 1018.5 hPa | 0 mm | - | - | - |
| 1777135792 | 22.22° C | 32% | 1018.6 hPa | 0 mm | - | - | - |
| 1777135489 | 22.22° C | 31% | 1018.5 hPa | 0 mm | - | - | - |
| 1777135188 | 22.78° C | 32% | 1018.5 hPa | 0 mm | - | - | - |
| 1777134887 | 22.78° C | 31% | 1018.4 hPa | 0 mm | - | - | - |
| 1777134584 | 22.78° C | 31% | 1018.5 hPa | 0 mm | - | - | - |
| 1777134282 | 22.78° C | 32% | 1018.5 hPa | 0 mm | - | - | - |
| 1777133979 | 22.78° C | 31% | 1018.4 hPa | 0 mm | - | - | - |
| 1777133677 | 22.78° C | 31% | 1018.5 hPa | 0 mm | - | - | - |
| 1777133376 | 22.22° C | 32% | 1018.5 hPa | 0 mm | - | - | - |
| 1777133074 | 22.78° C | 31% | 1018.5 hPa | 0 mm | - | - | - |
| 1777132772 | 22.78° C | 32% | 1018.5 hPa | 0 mm | - | - | - |
| 1777132169 | 22.78° C | 31% | 1018.4 hPa | 0 mm | - | - | - |
| 1777131868 | 23.33° C | 31% | 1018.5 hPa | 0 mm | - | - | - |
| 1777131567 | 23.89° C | 33% | 1018.5 hPa | 0 mm | - | - | - |
| 1777131266 | 23.89° C | 31% | 1018.5 hPa | 0 mm | - | - | - |
| 1777130965 | 23.33° C | 31% | 1018.5 hPa | 0 mm | - | - | - |
| 1777130663 | 22.78° C | 34% | 1018.4 hPa | 0 mm | - | - | - |
| 1777130362 | 23.89° C | 31% | 1018.4 hPa | 0 mm | - | - | - |
| 1777130062 | 24.44° C | 30% | 1018.5 hPa | 0 mm | - | - | - |
| 1777129761 | 24.44° C | 30% | 1018.4 hPa | 0 mm | - | - | - |
* Rain latest hour (hover to see other rain measurements)
** Current wind speed in m/s (hover to see current wind gust speed)